Simultaneous Nadir Overpasses (SNOs) Predictions

Prediction of SNOs between METOP-A and TERRA Satellite Orbit:

Table of predicted SNOs for the next 14.0 days since TLE Epoch: 6/30/2017
Index Date (METOP-A) Time (METOP-A) Lat,Lon (METOP-A) SZA (METOP-A ) Date (TERRA) Time (TERRA) Lat,Lon (TERRA) SZA (TERRA ) Distance(km) Time Diff (sec)
1 07/01/2017 00:35:15 81.34,-141.28 61.08 07/01/2017 00:36:13 81.34,-141.14 61.12 2.44 58
2 07/01/2017 01:25:54 -81.35, 26.63 118.85 07/01/2017 01:25:39 -81.35, 26.82 118.83 3.28 15
3 07/03/2017 20:09:34 81.34, -74.51 61.32 07/03/2017 20:10:27 81.35, -74.35 61.37 2.84 53
4 07/03/2017 21:00:13 -81.35, 93.45 118.60 07/03/2017 20:59:54 -81.35, 93.25 118.63 3.23 19
5 07/06/2017 15:43:55 81.34, -8.14 61.57 07/06/2017 15:44:44 81.35, -8.07 61.60 1.15 49
6 07/06/2017 16:34:35 -81.35, 159.46 118.40 07/06/2017 16:34:11 -81.35, 159.56 118.40 1.59 24
7 07/09/2017 11:18:15 81.35, 58.61 61.92 07/09/2017 11:19:01 81.35, 58.46 61.93 2.51 46
8 07/09/2017 12:08:55 -81.35,-133.75 118.05 07/09/2017 12:08:28 -81.35,-133.89 118.07 2.32 27
9 07/12/2017 06:52:35 81.35, 124.95 62.27 07/12/2017 06:53:18 81.35, 124.87 62.28 1.40 43




NCC Satellite Simultaneous Nadir Overpasses (SNOs) Prediction Service
